GFSMW_850_temp_021.txt.gz
Temp
23 22 22 23 22 22 22 22 21 21 20 20 20 20 19 19 19 20 20 20 20 20 19 19 19 19 19 18 18 18 17 18 18 18 18 18 18 18 18 18 18 18 18
21 23 22 23 22 23 22 22 22 21 21 21 20 20 20 20 20 20 20 20 20 19 19 20 19 19 19 18 18 18 18 18 17 18 18 18 18 18 18 18 18 18 17
22 23 23 24 23 23 23 23 23 22 21 21 21 20 20 20 20 20 20 20 20 20 20 20 19 19 19 19 18 18 18 18 17 18 18 18 18 17 17 18 18 18 18
23 24 24 24 24 24 24 23 23 22 22 21 21 21 21 20 20 20 20 20 20 20 20 20 19 19 19 19 19 18 18 18 18 18 18 18 18 17 17 17 17 17 17
24 24 24 25 25 25 25 25 24 23 22 21 21 21 21 21 21 21 20 20 20 20 20 20 19 19 19 19 19 18 18 18 18 18 18 18 18 18 18 18 17 17 17
24 25 25 25 25 25 25 25 24 24 23 22 22 22 21 21 21 20 20 20 20 20 20 19 19 19 18 19 19 19 18 18 18 18 18 18 18 18 18 18 17 17 17
25 25 24 24 24 24 25 25 25 24 23 23 23 22 22 22 21 21 20 20 20 20 20 20 19 19 20 19 20 20 20 19 18 18 18 18 17 17 18 17 17 17 17
25 25 25 25 25 25 25 25 25 25 24 23 23 23 23 22 22 21 21 21 21 20 20 20 20 20 20 19 19 20 20 20 19 18 18 17 17 17 17 17 17 17 17
26 26 26 26 25 24 25 26 25 25 25 24 24 23 23 22 22 21 21 20 21 21 21 21 20 20 20 19 19 20 21 20 20 19 18 17 17 17 17 17 17 17 17
26 27 26 26 27 26 26 26 26 26 26 25 24 24 24 23 22 21 21 21 21 20 20 21 20 20 20 19 20 20 21 21 20 20 19 19 18 17 16 17 17 17 17
27 27 28 27 27 26 25 26 26 25 25 25 25 24 24 23 22 22 22 22 21 21 20 21 21 20 20 20 20 20 19 20 20 20 20 19 18 17 16 16 16 16 16
28 29 29 28 27 26 25 25 26 26 25 26 25 25 25 24 23 22 22 22 21 21 21 21 20 20 20 20 20 20 20 20 20 20 20 20 18 18 17 16 16 16 16
28 27 28 28 28 27 26 25 25 27 26 26 25 25 25 24 24 23 22 22 22 21 21 20 20 20 20 20 20 20 20 19 20 20 20 20 19 18 17 17 16 16 16
28 29 29 28 29 29 29 26 27 27 27 26 25 25 25 25 25 24 23 22 23 22 21 21 20 20 20 20 20 20 20 20 19 19 19 19 19 19 18 16 16 16 15
29 29 29 30 30 29 28 27 26 25 26 26 26 26 26 26 25 24 23 23 23 22 22 21 21 20 20 20 20 20 20 20 19 19 18 18 18 18 18 17 16 15 15
28 29 29 32 31 31 30 30 29 27 26 26 27 27 26 26 26 25 24 23 22 22 22 22 21 21 21 20 20 20 20 19 19 18 17 17 17 17 17 17 16 15 15
30 28 29 30 31 33 33 30 31 30 27 27 26 26 26 26 26 25 24 23 23 22 22 22 22 21 21 21 21 20 20 19 19 18 17 16 16 17 17 17 16 15 15
32 32 30 30 31 34 33 32 30 29 28 28 26 24 25 27 26 25 24 24 23 23 23 23 22 22 22 22 21 20 19 19 19 18 18 16 16 16 16 16 15 15 14
33 33 33 33 33 33 34 31 27 27 27 27 27 27 26 26 25 26 25 24 22 23 23 23 22 22 22 21 20 19 18 18 19 18 18 16 16 16 15 15 15 15 14
32 33 33 33 32 33 32 30 28 26 29 29 30 29 27 26 26 27 26 24 23 23 22 22 22 22 21 20 20 19 18 18 18 17 17 16 16 15 15 15 15 14 14
31 32 32 34 33 32 30 29 28 27 30 31 31 26 26 26 26 26 25 25 23 22 22 21 22 21 21 21 21 21 19 18 16 17 16 16 15 15 14 14 14 14 14
29 30 30 30 30 30 31 30 28 32 32 29 28 27 27 26 24 24 23 23 21 21 22 21 21 21 21 21 20 22 18 17 16 16 16 15 14 14 14 14 14 13 13
27 28 29 30 30 29 27 27 32 32 30 27 27 26 25 25 22 23 22 21 22 21 20 21 21 20 20 18 18 19 18 16 16 15 14 14 14 14 14 14 14 13 13
27 28 29 30 29 28 26 26 27 27 28 29 29 28 25 23 25 24 22 22 22 21 21 22 21 20 19 19 18 19 17 17 15 14 14 14 14 14 14 14 14 14 13
24 24 26 26 26 23 22 23 23 24 25 25 25 24 23 21 21 19 19 19 21 23 23 22 22 21 19 21 20 19 17 16 15 15 14 14 14 14 14 14 14 14 13
22 23 23 23 23 23 23 21 22 22 22 23 22 21 20 20 19 18 19 19 22 22 21 19 18 19 18 19 18 16 15 15 15 14 14 14 14 14 14 14 13 13 13

GFSMW_850_temp_024.txt.gz
Temp
21 20 21 21 21 21 21 21 21 21 20 20 20 19 20 19 19 20 20 20 20 20 19 19 19 18 18 18 18 18 17 17 17 17 18 18 18 18 18 18 18 17 17
20 20 21 21 22 22 22 22 22 21 21 20 20 20 20 20 20 19 19 20 20 20 19 19 19 19 18 18 18 18 17 17 17 17 18 18 18 18 18 18 18 17 17
21 22 21 22 22 22 22 22 22 22 21 21 20 20 20 20 20 19 19 19 20 20 19 19 19 19 18 18 18 18 17 18 17 17 18 18 18 17 17 17 18 17 17
21 21 23 21 22 23 23 23 22 22 22 21 21 20 20 20 20 20 19 19 20 20 19 19 19 19 19 19 19 18 17 18 18 18 18 18 18 17 17 17 17 17 17
22 22 23 24 23 23 23 23 23 23 22 22 21 21 20 21 21 20 20 19 20 20 20 19 19 19 19 19 19 18 18 18 18 17 18 18 18 18 18 18 17 17 17
23 23 25 25 24 23 23 23 23 23 23 22 22 21 21 21 21 20 20 20 20 20 20 20 19 19 19 19 19 18 18 18 18 17 17 17 18 18 18 18 17 17 17
23 24 23 24 24 24 24 23 23 23 23 23 22 22 22 21 21 21 21 21 20 20 20 20 19 19 19 19 19 19 19 19 19 18 18 17 17 17 17 17 17 17 17
24 23 24 24 25 25 25 25 24 24 24 24 23 22 22 21 21 21 21 21 21 21 20 20 20 20 19 19 19 19 19 19 19 19 18 17 17 17 17 17 17 17 17
24 24 24 24 24 25 26 25 25 25 25 25 24 24 23 22 22 21 21 21 21 21 21 20 20 20 20 19 19 19 19 20 20 20 19 18 17 17 17 17 17 17 17
25 25 24 24 25 26 26 26 26 26 26 25 25 24 24 24 23 22 22 21 21 21 21 20 20 20 20 19 19 19 19 19 20 20 20 19 19 18 17 17 17 17 17
26 26 26 25 26 26 25 26 26 26 25 25 25 25 24 24 23 23 23 22 21 21 21 21 20 20 20 20 19 19 19 19 20 20 20 20 19 19 18 17 16 16 16
30 29 28 26 25 25 25 26 26 26 26 26 26 25 25 24 24 23 23 22 22 21 21 21 20 20 20 20 20 20 20 19 19 20 20 20 19 19 19 18 16 16 16
30 28 26 26 26 26 26 26 27 27 26 25 26 25 25 25 24 24 24 23 22 21 21 21 21 21 21 20 20 20 20 20 19 19 19 19 19 19 18 18 17 16 16
31 30 27 27 26 26 28 27 27 27 25 24 25 25 26 26 26 26 25 24 23 22 21 21 21 21 20 20 20 20 20 20 19 19 18 18 18 18 17 17 17 16 16
30 30 29 28 27 27 26 27 27 27 27 26 25 25 26 26 26 26 25 24 24 23 22 22 21 21 21 20 21 20 20 20 19 19 19 18 18 17 18 17 16 16 15
31 31 30 29 28 27 28 28 29 28 27 27 28 26 24 25 26 26 26 25 25 24 23 22 22 21 21 21 21 20 20 20 19 19 19 18 17 16 17 16 16 15 15
32 31 32 30 29 29 29 29 30 30 28 28 28 27 26 26 26 25 26 26 25 24 23 22 22 22 21 21 21 20 20 20 19 19 19 18 17 17 17 16 16 16 15
32 32 31 32 31 30 29 29 29 30 30 28 27 27 26 26 25 24 25 26 25 25 24 23 23 22 22 21 21 21 20 20 20 19 19 18 18 17 16 16 16 15 15
32 33 33 33 33 31 31 30 29 29 27 28 26 25 26 26 26 25 26 26 25 25 25 24 23 23 23 22 22 21 20 20 20 19 19 18 17 17 16 15 15 15 15
31 31 31 31 32 31 31 30 30 30 30 29 29 29 27 26 27 27 27 26 25 25 25 24 24 23 23 22 22 21 20 20 19 19 18 17 17 16 16 15 15 15 15
30 31 31 31 32 31 30 30 30 30 31 30 27 26 25 26 27 27 24 23 23 23 24 24 24 23 22 23 22 21 21 20 19 19 18 18 17 16 16 15 15 15 14
27 29 29 29 30 29 28 27 28 30 28 27 27 26 25 25 25 25 23 26 22 22 23 22 22 23 22 22 22 21 19 19 18 18 17 17 16 16 16 15 15 15 13
25 25 27 26 27 27 26 24 24 24 24 24 24 24 23 21 22 22 23 24 25 20 18 19 19 21 22 22 21 20 19 18 18 17 16 16 16 15 15 15 14 14 13
22 23 24 25 25 24 24 25 24 24 24 23 22 23 22 22 21 20 19 19 23 21 24 21 19 20 21 21 19 18 18 17 16 16 15 15 15 15 15 15 14 14 14
21 22 23 23 23 23 24 25 25 25 25 24 23 22 21 21 20 19 20 18 19 19 19 18 18 18 21 20 21 19 16 17 16 15 15 14 14 15 15 14 14 14 13
23 23 23 24 24 24 24 24 25 25 25 24 24 23 22 21 20 19 18 19 19 19 19 18 18 19 18 15 15 15 15 16 16 14 16 16 15 15 14 14 14 13 13

GFSMW_850_temp_030.txt.gz
Temp
24 23 22 21 21 20 19 18 18 18 18 18 18 18 19 19 19 19 19 20 20 20 20 18 19 18 18 17 17 18 17 18 18 19 19 18 18 18 19 19 19 18 18
25 23 22 22 21 20 19 18 18 19 20 18 18 19 19 19 19 19 19 20 20 20 20 19 19 18 19 18 18 18 18 18 18 19 20 20 19 19 19 19 19 18 18
25 24 23 22 22 21 20 19 19 19 20 18 18 18 18 19 19 19 19 19 20 20 20 19 19 18 18 19 18 18 18 19 18 18 19 20 22 20 19 18 19 18 18
26 25 24 23 23 22 20 19 19 19 19 21 19 19 19 20 20 20 20 20 20 20 20 19 19 19 19 18 18 17 18 18 19 18 18 18 19 21 20 19 18 18 18
26 26 25 24 23 22 21 20 19 20 19 21 20 19 20 20 20 20 20 19 19 20 19 20 20 20 19 19 18 18 18 17 19 19 18 18 18 18 20 21 19 18 18
27 26 26 25 24 23 22 21 20 22 21 21 22 20 19 20 20 20 20 20 20 19 20 19 20 20 19 19 18 19 19 18 18 19 19 19 19 20 19 20 20 20 19
28 27 26 25 24 24 22 21 20 21 22 22 22 22 21 21 20 20 20 20 20 20 20 20 20 19 20 20 19 19 19 19 19 20 18 19 19 19 19 19 20 20 19
28 28 27 26 24 24 23 22 21 23 23 22 22 22 22 20 20 20 21 20 21 21 20 19 20 20 20 20 20 19 19 19 20 20 20 19 18 18 18 19 20 20 19
29 28 27 26 25 24 23 23 23 25 24 24 23 23 23 22 20 20 21 20 20 21 20 19 21 20 21 20 20 19 20 19 21 21 21 20 19 18 18 18 19 19 21
30 29 28 27 26 25 24 23 25 26 25 24 24 24 24 23 23 22 22 22 21 21 20 19 20 20 20 21 20 20 20 20 20 19 20 21 18 18 18 18 18 18 19
31 30 29 28 27 26 25 23 22 24 26 25 25 25 24 24 24 23 23 23 23 22 22 21 21 19 19 21 21 20 19 20 20 20 19 21 20 18 18 18 18 18 18
32 31 31 30 28 27 26 25 23 23 24 27 27 26 25 25 25 24 24 24 23 23 22 22 21 21 19 20 21 21 19 20 20 20 20 20 20 20 19 17 18 18 18
31 31 31 30 29 28 27 26 24 24 23 23 25 26 26 26 25 25 25 25 24 24 23 22 22 21 21 20 21 21 21 21 21 20 20 20 20 20 18 20 18 17 16
30 30 30 30 30 28 27 25 26 25 24 23 22 24 27 27 27 26 26 26 25 24 24 23 23 22 21 21 21 22 21 21 21 21 20 20 20 20 20 20 20 18 17
30 30 29 29 28 28 27 25 25 25 25 24 23 23 27 27 27 27 27 26 25 25 25 24 23 23 22 20 22 22 22 21 21 21 21 20 20 20 20 19 19 17 17
30 31 30 28 28 27 26 26 25 25 24 24 23 23 23 25 27 26 26 26 26 26 25 25 24 24 23 22 21 23 22 22 22 21 21 20 20 20 19 19 18 18 17
30 30 30 30 29 28 28 27 28 24 24 24 23 22 23 24 26 24 23 25 25 24 26 25 25 24 24 23 23 23 23 22 22 22 20 19 19 20 20 19 18 17 17
30 30 31 31 30 29 30 27 26 25 24 24 24 23 22 23 22 22 23 24 24 23 23 25 25 25 24 24 24 23 23 22 21 21 21 21 20 19 20 20 19 18 17
30 30 30 30 30 29 28 27 25 24 23 24 25 27 24 21 20 22 26 24 22 21 19 19 20 23 24 24 24 23 23 22 21 21 21 20 20 19 20 19 18 18 18
29 29 29 29 28 29 28 26 26 25 24 27 28 25 26 24 24 24 22 21 19 19 19 19 19 20 22 21 22 24 23 22 21 19 20 21 21 20 20 19 18 18 17
27 27 27 28 29 29 29 29 26 26 28 23 23 24 26 26 26 25 25 23 22 20 20 20 22 21 20 22 22 23 24 23 21 20 19 18 20 20 20 19 18 18 17
26 26 25 27 26 27 30 30 30 29 25 24 24 23 23 24 21 23 23 22 22 22 22 21 22 27 25 24 25 25 24 23 22 21 21 19 20 22 20 19 19 17 16
25 24 25 24 23 26 28 28 29 28 24 23 24 23 23 24 23 22 21 19 19 20 20 20 19 21 25 28 26 24 23 23 21 21 20 19 21 21 19 18 17 17 15
22 22 23 22 21 24 24 25 27 26 26 25 25 24 21 21 20 21 20 20 20 20 21 21 20 22 22 25 25 23 21 19 19 17 18 17 18 17 17 17 16 15 15
20 20 21 20 19 20 20 21 22 21 22 21 21 21 21 21 20 20 21 21 21 22 21 21 21 21 20 21 23 24 25 24 21 17 17 17 17 17 17 16 15 14 14
18 18 18 18 18 18 20 22 22 23 21 20 22 22 23 23 22 22 21 21 21 21 21 21 21 22 21 20 19 19 20 18 18 17 16 17 16 17 17 15 14 14 13

GFSMW_850_temp_033.txt.gz
Temp
26 26 25 24 23 22 21 20 20 19 19 19 19 20 20 20 20 20 20 19 19 18 18 19 19 19 19 19 18 19 19 20 19 20 20 20 20 20 21 21 21 20 18
27 26 25 24 24 23 21 20 19 19 19 19 19 20 20 21 20 20 20 19 19 18 19 19 19 19 18 20 19 19 19 20 19 20 21 21 21 21 21 21 20 20 20
28 26 25 25 24 23 22 20 19 19 19 19 19 19 20 20 21 21 20 19 19 19 19 19 20 19 19 19 19 19 19 20 19 20 20 22 22 21 20 20 20 19 20
29 27 26 25 25 24 22 21 19 19 19 19 20 20 20 21 21 21 21 21 19 19 19 19 18 19 20 20 19 19 19 19 20 19 19 19 19 20 21 21 20 19 19
30 29 27 26 25 24 23 21 20 19 19 19 20 20 20 21 21 22 21 21 20 19 20 19 19 19 19 20 20 18 19 19 20 20 20 20 20 20 20 20 20 20 20
31 29 28 26 26 25 24 22 20 20 19 19 20 20 20 21 22 21 22 21 21 20 19 20 19 19 19 19 19 18 18 19 19 20 20 20 20 21 21 21 21 20 20
32 30 29 27 26 25 24 23 21 20 20 20 19 20 20 21 21 21 21 22 22 22 21 20 19 19 19 19 19 19 18 20 18 20 20 20 20 21 21 21 22 21 21
32 31 29 28 27 25 24 23 22 20 20 21 20 21 21 20 20 21 22 21 22 22 22 21 20 19 19 19 19 19 18 18 21 20 20 20 20 20 20 20 21 21 21
33 31 30 29 27 26 25 23 23 22 23 22 22 22 23 22 21 21 21 21 21 23 22 21 20 19 19 19 19 19 19 19 20 19 21 21 20 20 20 20 20 21 22
33 32 31 29 28 27 25 24 23 23 26 24 24 24 23 23 22 21 21 21 22 21 22 21 20 19 19 19 19 19 19 19 19 19 19 21 19 20 20 20 20 20 20
34 33 31 30 29 28 27 25 23 22 22 25 24 24 24 24 23 23 22 22 22 21 22 21 21 20 20 19 19 19 20 20 19 19 19 21 21 20 20 20 20 20 20
34 33 32 31 30 29 28 26 25 24 22 23 25 25 25 24 24 24 23 22 22 22 22 22 21 21 21 20 19 20 20 20 19 19 20 20 21 21 20 19 19 19 19
34 33 33 32 31 30 29 28 26 25 24 23 22 22 24 25 25 24 25 24 24 23 23 22 21 22 22 21 20 20 21 20 19 20 20 21 20 21 20 20 19 19 18
33 34 34 33 32 31 30 28 28 27 26 25 23 23 22 25 25 24 25 25 25 25 24 22 22 22 22 22 22 22 21 22 20 20 20 20 20 21 22 20 20 19 19
32 32 32 32 32 31 30 29 28 28 27 26 25 23 23 22 22 23 25 26 25 25 25 25 23 23 23 21 22 22 21 22 22 20 20 20 19 20 21 21 20 19 19
31 31 32 31 31 31 30 29 28 27 27 26 25 24 23 22 22 22 23 25 26 26 26 26 25 24 23 21 21 21 21 21 21 20 20 21 20 19 20 21 20 19 19
31 31 31 32 31 30 29 29 28 27 27 26 26 25 24 23 22 21 21 24 26 25 26 26 25 25 25 24 23 22 21 21 21 21 20 20 20 20 19 21 21 19 19
31 31 32 32 32 32 31 29 28 26 26 26 25 25 24 23 22 22 21 21 22 22 23 24 24 25 25 25 25 24 22 21 21 21 20 19 20 20 20 20 21 21 19
30 31 31 32 32 32 32 31 28 28 26 25 25 24 23 23 22 24 23 22 21 21 22 22 22 23 25 25 25 24 24 22 22 22 20 19 19 20 20 20 20 21 20
30 31 31 31 31 31 31 30 30 28 27 28 25 24 23 22 22 23 23 22 21 22 21 21 22 23 24 26 26 26 23 22 22 22 21 20 19 20 20 20 19 19 21
26 27 28 28 29 29 30 29 29 29 28 26 24 23 23 22 22 22 23 23 22 21 21 21 22 23 25 26 27 27 26 24 23 21 20 21 21 20 20 20 20 20 20
25 26 27 28 26 27 28 27 28 30 27 26 25 23 22 22 22 21 21 21 21 20 21 21 22 22 24 25 24 25 26 26 23 22 21 21 20 20 19 18 18 18 18
25 26 27 27 26 26 25 25 26 26 26 25 24 23 22 22 22 22 21 21 20 21 21 21 21 21 22 20 21 22 21 22 23 24 22 22 21 21 19 18 17 17 17
25 25 25 25 25 23 23 23 24 24 24 24 23 23 22 22 21 22 21 21 22 21 21 22 21 22 21 21 21 21 20 19 19 19 21 22 22 21 20 18 17 17 17
22 22 23 23 22 21 21 21 22 22 22 22 22 22 22 22 22 21 23 23 22 23 23 23 23 23 23 23 22 22 21 21 19 19 18 18 20 20 19 17 18 16 16
20 20 20 20 19 19 19 18 20 20 22 22 23 24 24 24 22 23 22 22 23 23 22 23 23 23 23 23 23 23 22 21 19 18 18 18 17 18 18 18 17 16 18